Find Starlink 36716

NORAD ID: 67699 Int'l Des: 2026-025 Owner: SPXS Country: US Constellation: starlink operational
LEOCIRCULARRETROGRADE

現在のビュー

3D地球を読み込み中...

Starlink 36716について

説明を読み込み中...

次回通過

Passes for default location (London). Set your location on the main map for personalized predictions.

高度履歴

Loading altitude history...

軌道要素

1 67699U 26025G 26146.30887227 .00031488 00000-0 97332-3 0 9999
2 67699 97.2819 257.8414 0001491 89.5809 270.5604 15.33453824 17910
Epoch: May 26, 2026 • Age: 12 hours

現在のステータス

高度 474.1 km
速度 7.63 km/s
衛星直下点 -21.53°S, 97.69°W
打ち上げ日 Feb 7, 2026
運用期間 0.2 years
タイプ internet

技術仕様

分類 Payload
質量 575.00 kg
乾燥質量 530.00 kg
総質量 575.00 kg
長さ 0.30 m
直径 4.10 m
スパン 29.00 m
形状 Box + pan
製造者 SPXS
バスタイプ Starlink V2MO
フェーズステータス In Orbit
所有者/国 SPXS/US

Most Searched